Weather in Bustan

Uzbekistan     40°31′31″N   68°12′20″E
temp.,
°C
wind,
m/s
gust,
m/s
humid.,
%
clouds,
%
prec.,
mm/h
press.,
hPa
HPBL,
m
19 april, mon
mon1923:00+19ssw2336100 0.0 101921
02:00+17s3344100 0.0 101832
05:00+16sse2246100 0.0 101714
08:00+19se4113562 0.0 1017454
11:00+25ese762610 0.0 10151367
14:00+27ese3220100 0.0 10132717
17:00+26ne221998 0.0 10112613
20:00+21nne3530100 0.0 101278
20 april, tue
tue2023:00+20ene3435100 0.0 101164
02:00+19se1139100 0.0 101011
05:00+19wsw2240100 0.0 101013
08:00+19n3444100 0.1 1013113
11:00+23ese4431100 0.1 1013637
14:00+26se342610 0.0 10112540
17:00+19ese2451100 0.4 1010150
20:00+20ese4851100 0.3 1010242
21 april, wed
wed2123:00+17nne3563100 0.3 1011155
02:00+17se3665100 0.4 1009191
05:00+16e147199 0.4 1011163
08:00+15nw687695 0.6 1015554
11:00+14nw6767100 1.9 1017733
14:00+20nw464258 0.2 10171752
17:00+20nnw553539 0.2 10171935
20:00+16n35474 0.0 1019106
22 april, thu
thu2223:00+12n48680 0.0 1021278
02:00+10wnw23750 0.0 102287
05:00+8nw34790 0.0 1023128
08:00+10nw33670 0.0 1024354
11:00+15nw32440 0.0 1024994
14:00+19nw332842 0.0 10231382
17:00+20n332491 0.0 10231399
20:00+17n113690 0.0 102411
23 april, fri
fri2323:00+13n36555 0.0 1024133
02:00+11nnw115999 0.0 102315
05:00+10wnw23645 0.0 102342
08:00+12w11475 0.0 1024213
11:00+19ese12335 0.0 1022683
14:00+23ne32215 0.0 10201139
17:00+24ne331919 0.0 10191313
20:00+19nne333249 0.0 101933